#timestamp,LO_Frequency,Hit,StdDev 
1514466015.6,286047000.8,N
1514466035.4,286047001.2,N
1514466055.3,286047000.9,N
1514466075.1,286047001.0,N
1514466095.8,286047001.0,N
1514466115.7,286047000.2,N
1514466135.5,286047000.9,N
1514466155.4,286047002.8,N
1514466175.2,286046999.8,N
1514466195.0,286047001.7,N
1514466195.9,286047001.7,N
1514466215.8,286047002.6,N
1514466235.6,286047002.3,N
1514466255.5,286047002.3,N
1514466275.3,286047001.4,N
1514466295.1,286047002.5,N
1514466315.9,286047002.4,N
1514466335.7,286047000.7,N
1514466355.6,286047000.1,N
1514466375.4,286047001.7,N
1514466395.2,286047001.5,N
1514466415.1,286046999.7,N
1514466416.0,286046999.7,N
1514466435.8,286047000.3,N
1514466455.6,286047002.8,N
1514466475.5,286047002.2,N
1514466495.3,286047001.5,N
1514466515.2,286047002.2,N
1514466535.9,286047004.4,Y
1514466555.7,286047002.7,P
1514466575.6,286047000.0,N
1514466595.4,286047000.3,N
1514466615.3,286047000.1,N
1514466635.1,286047002.8,N
1514466636.0,286047002.8,N
1514466655.8,286047002.6,N
1514466675.7,286047000.0,N
1514466695.5,286047002.6,N
1514466715.3,286047000.5,N
1514466735.2,286047000.8,N
1514466755.0,286047001.0,N
1514466755.9,286047001.0,N
1514466775.8,286046999.7,N
1514466795.6,286047000.3,N
1514466815.4,286046999.8,N
1514466835.3,286047000.1,N
1514466855.1,286047000.2,N
1514466875.8,286047001.0,N
1514466895.7,286047002.4,N
1514466915.5,286046999.8,N
1514466935.4,286047000.3,N
1514466955.2,286047001.1,N
1514466975.0,286047000.7,N
1514466975.9,286047000.7,N
1514466995.8,286047000.0,N
1514467015.6,286047000.9,N
1514467035.4,286047000.0,N
1514467055.3,286047002.7,N
1514467075.1,286047000.9,N
1514467095.9,286047000.8,N
1514467115.7,286046999.9,N
1514467135.5,286046998.4,N
1514467155.4,286046998.6,N
1514467175.2,286046996.5,Y
1514467195.1,286046999.1,P
1514467196.0,286046999.1,N
1514467215.8,286046999.3,N
1514467235.6,286046999.2,N
1514467255.5,286046999.3,N
1514467275.3,286046998.9,N
1514467295.1,286046998.2,Y
1514467315.9,286047000.9,P
1514467335.7,286046998.2,N
1514467355.6,286046998.3,N
1514467375.4,286046999.3,N
1514467395.2,286046998.8,N
1514467415.1,286046998.5,N
1514467416.0,286046998.5,N
1514467435.8,286047001.1,N
1514467455.7,286047000.6,N
1514467475.5,286047001.0,N
1514467495.3,286047002.3,N
1514467515.2,286046999.7,N
1514467535.0,286047000.1,N
1514467535.9,286047000.1,N
1514467555.7,286047000.8,N
1514467575.6,286047000.2,N
1514467595.4,286047001.0,N
1514467615.3,286047000.7,N
1514467635.1,286047000.6,N
1514467636.0,286047000.6,N
1514467655.8,286047000.8,N
1514467675.7,286046998.8,N
1514467695.5,286046999.3,N
1514467715.3,286047001.0,N
1514467735.2,286047000.4,N
1514467755.0,286047000.2,N
1514467755.9,286047000.2,N
1514467775.8,286046999.8,N
1514467795.6,286046999.7,N
1514467815.4,286047001.8,N
1514467835.3,286047001.7,N
1514467855.1,286047002.2,N
1514467875.9,286047002.3,N
1514467895.7,286047000.5,N
1514467915.5,286047000.8,N
1514467935.4,286047000.5,N
1514467955.2,286047000.0,N
1514467975.0,286047000.9,N
1514467975.9,286047000.9,N
1514467995.8,286047000.2,N
1514468015.6,286047000.4,N
1514468035.5,286046999.7,N
1514468055.3,286047000.1,N
1514468075.1,286047000.9,N
1514468095.9,286046998.2,N
1514468115.7,286047002.7,Y
1514468135.5,286047000.6,P
1514468155.4,286047001.2,P
1514468175.2,286046999.0,P
1514468195.1,286046998.3,N
1514468196.0,286046998.3,N
1514468215.8,286047000.7,N
1514468235.6,286047002.7,N
1514468255.5,286047002.4,N
1514468275.3,286047002.8,N
1514468295.1,286047000.9,N
1514468315.9,286047001.0,N
1514468335.7,286046998.2,N
1514468355.6,286046998.7,N
1514468375.4,286046999.3,N
1514468395.2,286046998.2,N
1514468415.1,286047001.2,N
1514468416.0,286047001.2,N
1514468435.8,286047000.9,N
1514468455.6,286047002.8,N
1514468475.5,286047000.9,N
1514468495.3,286047000.5,N
1514468515.2,286047000.5,N
1514468535.9,286047001.1,N
1514468555.7,286046998.6,N
1514468575.6,286047000.9,N
1514468595.4,286046998.1,N
1514468615.2,286047002.4,N
1514468635.1,286047002.6,N
1514468636.0,286047002.6,N
1514468655.8,286047003.7,N
1514468675.7,286047004.4,N
1514468695.5,286047003.8,N
1514468715.3,286047001.4,N
1514468735.2,286047002.8,N
1514468755.0,286046999.9,N
1514468755.9,286046999.9,N
1514468775.8,286047001.2,N
1514468795.6,286046998.5,N
1514468815.4,286047001.2,N
1514468835.3,286047000.8,N
1514468855.1,286047001.1,N
1514468875.8,286046999.2,N
1514468895.7,286046999.0,N
1514468915.5,286046999.4,N
1514468935.4,286046998.7,N
1514468955.2,286047000.2,N
1514468975.0,286047000.2,N
1514468975.9,286047000.2,N
1514468995.8,286046998.3,N
1514469015.6,286046998.3,N
1514469035.4,286046999.2,N
1514469055.3,286046996.8,N
1514469075.1,286046998.9,N
1514469095.9,286046999.5,N
1514469115.7,286046999.6,N
1514469135.5,286046997.7,N
1514469155.4,286046997.7,N
1514469175.2,286046997.6,N
1514469195.1,286046997.2,N
1514469215.9,286046999.1,N
1514469235.7,286046999.1,N
1514469255.5,286046999.4,N
1514469275.4,286046998.8,N
1514469295.2,286046998.1,N
1514469315.0,286046998.4,N
1514469316.0,286046998.4,N
1514469335.8,286046998.6,N
1514469355.6,286046995.0,Y
1514469375.5,286046997.3,P
1514469395.3,286046995.4,P
1514469415.1,286046995.1,P
1514469435.9,286046995.3,Y
1514469455.7,286047000.2,P
1514469475.6,286047001.8,N
1514469495.4,286047000.4,N
1514469515.2,286047002.3,N
1514469535.1,286047000.6,N
1514469536.0,286047000.6,N
1514469555.8,286046999.8,N
1514469575.6,286047000.5,N
1514469595.5,286046998.2,N
